Temp
9 8 8 8 9 10 11 11 11 11 11 11 12 12 12 12 11 11 12 12 10 10 9 9 9 9 9 10 10 10 9 9 10 9 9 9 9 8 9 8 8 8 8 8
8 7 9 8 9 10 10 11 11 11 12 12 13 13 13 13 12 12 12 12 11 10 10 9 9 9 9 9 9 10 10 9 9 10 10 9 9 9 9 9 9 9 8 8
8 8 8 8 8 9 10 10 11 11 12 12 13 13 14 14 14 13 12 12 11 10 10 10 9 9 9 9 9 9 9 9 9 9 10 9 9 9 9 9 9 9 9 8
7 8 8 8 8 9 9 10 11 11 11 13 13 14 13 13 13 12 11 11 12 11 10 10 9 9 10 9 8 8 9 9 9 9 10 10 9 9 8 9 9 9 9 9
7 8 8 8 8 9 9 10 10 11 11 12 12 13 9 11 10 11 10 11 11 11 11 10 10 10 10 9 9 8 8 9 10 10 10 10 10 9 9 9 9 10 9 9
8 8 8 8 8 9 9 10 10 11 11 13 12 13 9 10 10 11 11 11 11 11 11 11 10 10 10 9 9 8 8 8 9 10 10 10 10 10 9 9 9 10 9 9
8 8 8 9 9 9 9 10 11 12 12 14 12 11 7 8 10 11 11 11 12 11 12 11 11 11 10 10 9 9 9 8 9 10 11 10 10 10 10 9 9 10 10 9
8 8 8 9 9 9 10 10 12 12 12 13 11 10 6 8 9 10 11 12 13 13 13 13 12 11 11 10 10 10 9 9 8 9 10 10 10 11 10 10 9 9 9 9
7 6 7 8 9 9 10 10 10 10 9 13 10 7 8 8 9 11 11 12 13 14 14 13 13 12 11 11 10 10 9 9 9 9 9 10 10 11 11 10 10 10 9 9
7 6 7 7 8 9 9 10 10 10 11 12 8 7 6 8 10 11 12 13 13 14 14 14 12 12 11 11 10 10 10 9 9 9 8 9 10 10 10 10 10 10 10 9
7 7 6 7 7 8 8 8 9 10 10 13 11 7 4 5 7 10 12 13 13 14 14 14 14 13 12 11 10 10 10 10 9 9 9 8 9 9 10 10 10 10 10 10
6 6 6 5 6 7 7 8 9 10 8 8 10 5 4 5 6 8 9 10 12 12 13 13 13 13 13 13 11 10 10 10 10 9 9 9 8 8 9 10 10 10 10 10
6 5 4 4 5 5 6 6 7 8 8 7 11 5 5 5 5 7 8 9 9 9 9 10 11 12 13 12 12 12 11 11 10 10 9 9 9 8 8 9 10 10 10 10
5 5 5 6 5 6 5 5 6 6 6 6 6 4 4 4 4 5 7 8 8 8 7 7 8 9 11 11 11 11 12 11 11 10 9 9 9 8 8 8 9 9 10 10
4 4 4 4 4 4 4 4 5 5 5 5 3 3 3 4 4 5 5 5 7 7 7 7 7 8 8 8 10 11 11 11 11 11 10 9 9 9 8 8 8 9 9 10
2 1 1 1 1 2 2 3 4 4 4 4 2 2 3 3 3 4 4 4 5 6 7 7 8 8 8 8 8 8 10 10 11 11 11 10 10 9 9 10 9 9 9 10
2 1 0 0 0 0 1 1 2 2 3 2 2 2 1 2 1 2 3 4 4 5 6 6 6 7 8 7 7 7 7 8 10 10 10 10 10 10 10 10 10 10 10 10
1 1 0 -0 -1 2 1 1 1 2 2 2 2 2 2 1 1 2 2 3 4 4 4 5 5 6 6 7 7 7 7 7 7 8 9 9 10 10 10 10 10 10 10 10
-0 -0 -0 -0 -0 -1 -0 0 1 1 1 1 1 1 1 1 1 1 1 2 3 3 4 4 5 5 5 6 6 7 8 7 7 8 8 9 9 10 10 10 10 10 10 10
-1 -1 -1 -1 0 2 0 1 0 0 -0 1 1 1 1 0 0 -0 1 1 1 2 2 3 4 4 5 5 5 5 6 7 6 7 7 7 10 10 9 10 10 10 10 10
-2 -2 -1 -1 -0 -0 1 1 0 -1 0 1 0 0 0 0 1 1 1 1 1 1 1 1 1 3 3 4 5 5 5 6 7 7 7 8 9 8 9 10 10 9 9 9
-1 -1 -2 -2 -2 -0 -0 -0 -1 -0 -0 -0 -0 -0 -0 -0 -0 0 1 1 1 1 1 1 1 1 1 2 3 4 4 5 6 7 6 8 8 8 8 10 10 10 9 9
-2 -1 -1 -1 -1 -1 -0 -1 -1 -1 -1 -1 -1 -1 -1 -1 -0 -0 0 0 0 1 1 1 1 1 1 1 2 3 4 4 5 5 6 7 6 7 7 7 8 8 9 8
-1 -1 -2 -1 -1 -1 -1 -1 -2 -2 -2 -2 -2 -2 -1 -1 -1 -1 -0 0 0 0 1 1 2 2 2 1 1 2 3 4 4 4 5 6 7 6 5 7 7 8 8 8
-2 -1 -1 -2 -1 -2 -2 -2 -2 -2 -2 -2 -2 -2 -2 -2 -2 -1 -1 -0 0 1 1 1 1 2 2 1 1 1 2 3 4 4 4 5 6 6 7 6 6 7 8 7
-1 -1 -1 -2 -2 -2 -2 -2 -2 -2 -2 -2 -2 -3 -3 -2 -2 -2 -1 -1 -0 0 0 0 0 1 2 1 1 1 1 2 4 4 4 4 4 5 6 6 5 7 8 7
Height
3138 3142 3144 3149 3155 3158 3160 3163 3165 3166 3168 3171 3172 3173 3174 3174 3175 3177 3181 3185 3188 3191 3196 3200 3204 3207 3209 3212 3215 3219 3221 3224 3227 3229 3231 3234 3235 3236 3238 3238 3239 3240 3241 3241
3139 3141 3146 3151 3154 3157 3160 3162 3165 3167 3168 3169 3170 3171 3173 3173 3176 3178 3181 3184 3188 3191 3193 3198 3202 3205 3208 3212 3214 3218 3221 3224 3227 3229 3231 3233 3236 3237 3239 3239 3241 3241 3241 3241
3137 3142 3145 3149 3152 3156 3159 3162 3164 3167 3168 3168 3169 3171 3171 3173 3175 3178 3180 3184 3188 3191 3194 3197 3200 3203 3207 3210 3213 3218 3221 3224 3227 3228 3232 3234 3235 3237 3239 3241 3241 3241 3242 3243
3139 3141 3145 3148 3151 3155 3158 3160 3163 3166 3168 3169 3169 3171 3170 3171 3173 3177 3180 3183 3188 3190 3193 3196 3199 3202 3206 3210 3212 3216 3220 3223 3226 3228 3232 3235 3236 3237 3239 3241 3242 3242 3244 3244
3137 3140 3144 3147 3150 3153 3157 3159 3162 3164 3166 3168 3169 3171 3171 3170 3172 3175 3179 3182 3184 3189 3192 3194 3198 3203 3206 3209 3212 3215 3218 3221 3224 3227 3230 3234 3236 3237 3238 3240 3242 3243 3244 3245
3136 3138 3142 3145 3148 3152 3155 3158 3160 3162 3165 3166 3166 3169 3171 3169 3170 3172 3176 3180 3182 3185 3189 3193 3196 3199 3204 3207 3210 3213 3216 3220 3222 3226 3229 3232 3235 3236 3238 3240 3242 3243 3244 3246
3135 3137 3140 3143 3146 3150 3153 3155 3159 3162 3163 3161 3164 3168 3171 3170 3169 3170 3173 3175 3179 3182 3183 3188 3193 3196 3200 3203 3207 3211 3214 3217 3221 3224 3227 3230 3234 3236 3237 3239 3241 3243 3245 3246
3133 3138 3137 3139 3142 3145 3149 3153 3152 3152 3156 3159 3162 3166 3169 3170 3170 3170 3171 3172 3174 3176 3179 3181 3187 3193 3198 3201 3205 3209 3213 3216 3219 3222 3226 3228 3231 3235 3236 3237 3239 3241 3243 3245
3132 3135 3136 3137 3140 3144 3146 3149 3151 3152 3154 3157 3163 3166 3167 3168 3169 3169 3170 3170 3170 3171 3174 3177 3182 3187 3193 3198 3202 3206 3210 3213 3217 3221 3223 3226 3229 3232 3235 3237 3239 3241 3242 3243
3130 3134 3135 3137 3138 3140 3142 3146 3150 3150 3152 3150 3161 3163 3166 3164 3165 3166 3167 3168 3168 3168 3170 3173 3178 3182 3188 3193 3199 3203 3207 3210 3215 3218 3221 3223 3226 3228 3232 3233 3236 3239 3242 3242
3130 3132 3136 3136 3136 3137 3141 3142 3144 3147 3148 3147 3153 3163 3162 3162 3162 3163 3164 3165 3166 3166 3167 3170 3172 3176 3181 3187 3193 3198 3202 3206 3209 3213 3216 3220 3223 3226 3228 3231 3233 3236 3239 3241
3131 3132 3134 3136 3136 3136 3137 3138 3141 3143 3148 3147 3150 3161 3160 3160 3160 3161 3161 3162 3163 3164 3165 3167 3170 3173 3176 3181 3185 3191 3197 3201 3205 3208 3211 3215 3219 3222 3224 3227 3230 3232 3235 3237
3130 3132 3135 3137 3140 3138 3137 3138 3138 3140 3141 3144 3147 3158 3157 3158 3159 3160 3161 3161 3161 3161 3162 3164 3166 3169 3173 3175 3180 3184 3189 3192 3197 3202 3205 3209 3213 3217 3220 3223 3226 3228 3230 3233
3128 3130 3131 3133 3134 3136 3137 3137 3138 3139 3142 3142 3145 3148 3153 3156 3157 3158 3159 3160 3161 3161 3162 3163 3164 3165 3167 3170 3173 3178 3182 3187 3190 3195 3199 3202 3206 3210 3214 3217 3220 3223 3226 3227
3128 3128 3130 3130 3131 3133 3134 3136 3137 3138 3139 3142 3144 3146 3150 3153 3155 3156 3158 3159 3160 3160 3160 3161 3162 3163 3165 3166 3168 3171 3175 3179 3183 3189 3194 3197 3200 3203 3205 3208 3212 3215 3218 3222
3125 3126 3127 3129 3130 3131 3132 3133 3134 3136 3138 3139 3142 3144 3148 3151 3152 3154 3156 3157 3158 3159 3159 3159 3159 3161 3161 3162 3164 3166 3168 3172 3178 3182 3187 3191 3194 3197 3199 3202 3204 3207 3210 3213
3124 3124 3126 3129 3129 3130 3133 3131 3131 3133 3135 3139 3142 3142 3144 3148 3150 3151 3153 3154 3155 3157 3158 3158 3158 3158 3159 3159 3160 3162 3164 3166 3170 3174 3178 3182 3186 3189 3193 3196 3198 3201 3204 3206
3121 3123 3125 3127 3128 3130 3125 3127 3129 3130 3133 3135 3138 3140 3142 3145 3147 3149 3150 3152 3153 3153 3154 3155 3156 3156 3156 3155 3156 3157 3159 3161 3163 3163 3168 3172 3177 3181 3184 3187 3190 3193 3196 3199
3119 3121 3122 3124 3125 3125 3123 3124 3126 3128 3132 3133 3135 3137 3139 3141 3142 3144 3146 3146 3148 3149 3150 3151 3152 3153 3154 3154 3153 3153 3155 3156 3158 3162 3164 3167 3168 3172 3176 3180 3183 3184 3186 3190
3117 3118 3121 3120 3120 3118 3118 3119 3122 3126 3128 3129 3131 3133 3135 3138 3140 3139 3140 3141 3142 3142 3143 3145 3146 3148 3149 3150 3150 3151 3150 3150 3150 3151 3153 3155 3159 3162 3166 3170 3173 3174 3176 3180
3114 3116 3117 3117 3116 3114 3114 3116 3119 3124 3125 3123 3126 3129 3131 3133 3134 3135 3135 3136 3136 3137 3137 3137 3138 3140 3142 3143 3145 3145 3146 3145 3147 3147 3148 3148 3149 3153 3156 3159 3163 3165 3165 3169
3111 3113 3113 3114 3114 3113 3109 3112 3116 3116 3117 3120 3122 3123 3125 3126 3127 3128 3128 3128 3129 3129 3130 3130 3130 3132 3133 3134 3136 3139 3139 3139 3140 3141 3143 3142 3141 3147 3147 3149 3151 3153 3155 3156
3108 3108 3108 3110 3107 3105 3105 3107 3110 3112 3113 3115 3117 3118 3119 3119 3120 3120 3119 3119 3119 3119 3120 3120 3121 3123 3125 3125 3125 3129 3131 3131 3132 3133 3134 3138 3136 3137 3140 3141 3141 3143 3144 3148
3101 3102 3103 3105 3104 3104 3105 3106 3107 3108 3109 3110 3110 3111 3112 3113 3113 3113 3111 3111 3110 3109 3108 3107 3108 3110 3114 3113 3115 3117 3120 3122 3123 3125 3126 3126 3129 3128 3130 3130 3132 3135 3136 3139
3098 3098 3098 3099 3100 3101 3102 3103 3104 3105 3105 3105 3105 3105 3105 3104 3106 3105 3103 3101 3100 3099 3098 3096 3094 3095 3099 3102 3103 3106 3108 3111 3113 3115 3117 3118 3119 3118 3121 3122 3123 3126 3126 3128
3092 3094 3094 3094 3096 3097 3098 3099 3099 3099 3099 3099 3100 3100 3098 3097 3096 3095 3094 3092 3089 3088 3087 3085 3084 3081 3082 3086 3090 3092 3096 3098 3101 3104 3106 3109 3110 3111 3110 3111 3113 3113 3120 3118
Wind_Speed
28 26 25 22 16 15 15 13 11 11 11 8 6 7 6 9 8 11 8 12 18 23 26 24 24 20 20 21 21 18 14 9 6 6 7 10 10 6 5 4 4 6 7 7
27 20 23 18 15 14 16 14 10 8 7 3 3 4 5 11 12 9 8 12 16 22 28 27 27 24 20 17 16 18 15 11 8 6 9 13 11 9 6 6 4 4 5 5
23 18 20 15 15 18 16 13 13 8 5 3 4 3 5 8 13 12 11 10 15 22 26 28 29 26 22 20 16 13 11 11 10 8 8 10 11 10 6 5 6 5 4 5
15 11 20 16 15 15 14 16 13 10 6 6 7 4 4 8 15 17 16 14 13 20 24 25 27 27 23 20 18 15 10 10 12 11 9 10 8 7 7 7 8 7 6 4
10 18 20 17 16 14 9 12 13 9 7 5 6 3 7 1 10 18 19 15 16 14 21 23 23 23 22 21 20 16 12 9 10 12 12 11 11 8 8 7 7 5 5 5
9 21 13 15 17 13 12 13 11 10 9 8 6 4 7 5 2 10 18 19 17 18 17 21 23 25 24 22 22 20 16 10 10 11 13 13 12 11 9 8 6 6 5 5
12 14 16 16 16 18 17 12 8 7 7 6 11 6 4 6 7 4 4 14 23 22 23 21 23 22 25 26 23 20 19 15 11 11 12 13 14 13 11 9 9 8 6 6
10 8 11 15 18 14 19 18 10 11 9 9 13 9 5 7 7 8 4 3 11 21 28 24 18 20 22 26 25 23 18 17 15 12 10 11 15 15 14 12 11 10 9 9
7 6 11 10 16 17 18 17 13 6 9 14 7 8 9 3 4 5 5 2 2 10 12 23 23 22 20 19 23 22 22 22 19 17 12 10 12 15 15 13 13 14 13 12
10 8 8 7 12 16 17 18 11 7 9 10 5 6 3 4 7 11 9 9 7 3 9 13 22 26 25 24 18 20 21 21 21 19 17 13 12 13 16 17 16 15 16 16
11 7 5 8 5 11 13 14 10 14 5 7 7 5 1 3 4 2 7 8 8 5 3 16 20 22 26 25 25 19 22 24 24 23 20 18 15 13 15 18 18 17 17 18
5 5 5 11 8 7 9 12 14 12 7 6 5 6 5 3 3 4 3 2 6 2 3 11 20 18 21 23 25 28 25 25 27 24 21 21 18 17 16 17 18 20 19 19
7 6 6 3 3 6 5 5 10 10 15 10 10 8 12 7 5 4 4 1 2 4 2 5 15 20 25 25 25 23 23 27 30 31 29 26 24 22 20 19 19 21 21 21
7 9 7 4 4 7 9 9 8 9 6 10 6 18 18 14 7 6 4 3 2 2 1 3 5 13 18 23 28 28 27 28 32 33 31 31 29 27 24 23 22 22 22 23
3 5 7 9 10 12 12 13 10 9 9 4 15 20 21 16 13 8 5 5 4 2 4 7 7 7 11 15 25 29 30 27 32 35 35 30 33 34 33 31 29 27 26 25
4 7 9 7 7 7 9 11 14 12 12 11 17 20 18 15 15 11 7 6 4 4 2 6 2 9 15 15 16 19 27 25 30 35 32 30 33 37 38 37 35 34 32 30
5 11 10 6 6 4 5 11 13 14 16 14 14 17 19 18 15 12 9 7 6 6 5 3 4 6 8 8 17 22 21 22 27 28 29 28 31 34 34 37 39 37 37 35
5 11 10 6 8 5 6 15 14 13 12 14 16 16 15 17 15 16 19 13 12 9 8 8 8 8 8 9 11 14 18 23 25 30 33 25 25 36 37 38 38 37 38 40
10 10 7 6 11 3 10 17 17 13 10 9 10 12 14 15 15 16 15 18 19 18 17 15 14 14 13 12 12 19 25 22 22 25 33 30 33 28 34 36 39 39 39 38
14 14 11 10 5 6 7 14 14 11 11 13 13 13 13 13 14 18 19 19 20 23 23 22 20 18 19 18 16 15 14 19 25 27 29 25 23 34 34 33 37 43 40 39
15 15 15 12 8 6 11 10 14 11 7 9 12 11 13 17 20 21 22 24 26 27 27 27 27 27 25 23 22 21 20 18 23 20 27 31 31 27 34 36 37 40 37 36
14 12 15 17 9 9 13 17 17 14 12 11 14 15 17 18 21 24 26 28 30 31 32 33 33 30 30 32 31 28 27 26 27 25 22 31 37 34 32 43 43 39 41 40
13 16 12 11 9 10 11 19 18 19 18 14 16 18 20 21 22 25 28 29 31 33 36 36 39 38 35 33 35 32 31 35 34 32 32 32 25 29 32 40 42 37 39 38
18 15 19 15 17 14 12 14 15 16 19 18 19 19 20 22 24 27 29 29 31 33 37 41 44 42 41 42 38 38 33 33 37 36 33 30 34 28 22 27 45 38 36 37
17 14 16 21 16 14 17 17 17 17 18 18 20 21 21 23 24 28 29 31 33 34 36 38 43 47 46 45 45 41 40 39 36 41 39 36 33 32 40 25 30 30 30 30
18 18 15 14 13 15 15 16 17 18 19 20 18 17 19 23 26 29 30 30 32 34 35 38 39 43 48 48 49 45 44 41 42 37 41 40 35 28 25 22 27 38 40 24
Wind_Direction
184 184 186 178 174 182 181 162 136 128 158 164 198 243 240 252 257 245 223 196 200 194 192 195 191 189 178 178 187 184 180 181 180 185 202 195 182 183 157 163 132 121 114 123
187 195 186 176 168 172 191 187 164 147 148 212 208 235 237 227 217 248 250 191 193 190 194 195 191 192 181 167 167 182 191 189 193 171 178 185 195 190 179 167 163 136 119 111
191 195 184 183 177 189 198 201 191 165 185 218 219 251 251 219 210 214 235 200 187 196 196 195 194 194 182 173 163 166 178 187 196 187 204 208 194 191 183 174 174 156 136 123
193 198 185 186 195 199 205 210 202 186 171 175 178 159 52 206 208 203 222 243 200 192 203 202 200 197 192 173 160 161 174 191 196 194 205 222 213 207 208 208 178 164 167 149
182 188 200 202 206 211 214 211 193 194 184 155 182 160 354 105 196 213 222 229 243 218 203 208 203 206 199 187 175 168 173 192 200 200 198 217 218 213 212 206 189 167 170 173
171 188 199 201 209 209 193 173 177 188 179 197 187 176 28 49 72 218 220 219 229 239 233 209 209 203 200 199 187 187 188 193 207 205 200 206 215 211 218 227 239 207 208 198
178 172 191 183 187 191 192 173 154 178 189 188 181 110 84 69 68 88 209 233 231 230 238 235 214 205 204 205 200 202 195 195 210 213 202 206 209 215 213 223 240 235 224 214
165 161 176 182 187 182 190 189 193 184 189 164 178 148 106 107 94 86 82 117 232 232 231 235 229 222 201 208 208 209 208 205 207 219 210 205 212 214 215 216 226 238 231 230
136 122 141 165 192 182 191 200 201 125 170 181 158 137 150 119 145 181 205 258 267 237 219 228 228 227 220 211 208 211 215 214 218 224 225 220 214 216 219 217 224 233 230 241
157 133 146 138 172 193 195 191 181 184 167 177 139 136 129 180 194 214 216 231 241 224 209 217 222 228 232 224 220 215 221 218 217 222 225 229 225 219 222 221 220 229 238 243
148 153 149 155 145 156 167 190 188 191 177 184 161 147 50 38 76 137 218 227 233 224 213 209 214 216 228 232 229 229 224 226 220 215 220 226 232 229 226 227 222 222 231 241
154 144 123 136 139 130 164 189 190 205 196 181 170 140 136 147 115 103 83 250 241 245 185 215 212 212 222 221 222 220 225 233 219 213 219 220 220 230 231 230 231 227 227 234
168 157 131 159 217 201 196 192 193 206 187 179 194 154 166 176 157 143 131 46 316 251 242 195 218 221 213 219 216 214 216 218 214 221 227 226 221 223 231 232 233 232 228 231
190 188 194 234 187 198 207 216 208 197 199 178 184 165 173 182 180 165 139 148 97 257 296 291 237 230 230 225 216 217 211 215 217 219 228 225 224 221 223 232 234 235 235 229
236 202 209 214 218 226 221 215 221 206 190 187 162 167 179 182 182 179 163 120 105 131 249 247 271 246 252 241 229 226 222 223 217 221 226 230 226 224 220 221 227 230 233 233
243 191 176 176 200 207 209 212 209 205 187 163 159 171 174 178 171 159 161 160 156 205 214 224 263 267 256 256 254 254 241 237 228 223 227 232 232 230 228 227 225 226 227 229
209 190 176 177 186 180 228 197 194 195 194 181 175 188 183 203 209 202 204 220 211 191 210 231 251 258 279 274 265 261 265 247 231 223 224 228 229 230 233 235 234 234 232 231
187 189 185 167 158 217 207 187 195 192 188 195 205 205 211 212 220 228 238 237 240 245 237 236 251 265 279 282 291 276 289 277 255 233 238 237 244 230 230 233 236 238 241 239
201 194 182 179 203 248 203 201 200 195 198 199 202 214 225 232 240 245 254 253 254 251 253 257 250 248 246 259 273 280 279 285 285 261 247 241 247 242 232 238 241 238 238 242
214 215 209 199 209 218 227 214 206 206 246 224 217 221 233 236 241 257 262 263 266 273 270 258 259 259 253 247 246 258 271 282 279 274 265 251 255 240 237 237 237 235 235 241
199 206 212 220 232 254 221 196 201 200 221 193 206 219 235 243 249 254 260 265 269 265 266 271 272 263 259 257 255 250 252 258 270 273 267 259 268 260 244 241 237 240 240 238
208 204 215 222 223 249 223 214 206 224 237 241 255 259 262 261 263 264 267 268 266 265 263 264 264 262 267 265 261 254 245 251 251 257 272 256 256 246 243 239 249 251 243 238
216 217 215 211 224 237 222 215 226 240 254 255 263 266 268 271 273 277 277 277 275 271 264 262 260 261 260 257 265 258 255 248 251 255 257 268 242 238 249 254 250 242 243 239
227 232 229 231 233 229 222 216 222 241 258 264 266 269 273 274 277 280 278 276 277 279 275 267 261 259 258 259 254 258 254 256 251 244 245 249 256 247 242 237 243 248 240 230
238 236 240 238 232 230 234 240 255 258 262 265 268 272 275 278 282 282 281 282 280 276 273 276 269 261 257 254 258 252 253 252 253 245 241 246 253 255 268 255 238 251 239 248
253 252 250 258 240 241 247 254 260 264 267 266 268 275 281 289 293 294 292 289 287 283 278 271 275 270 260 254 251 252 248 248 245 245 241 242 245 243 248 254 241 243 240 249